EHI
18 19 23 23 20 19 15 11 10 9 9 9 6 4 3 2 3 7 12 14 11 7 4 2 2 2 2 2 2 2 2 2 1 1 1 3 3 2 1 0 0 0 0
21 23 25 23 21 19 16 12 10 9 9 9 6 4 4 4 5 7 10 10 8 5 3 2 2 2 2 2 3 2 1 1 1 1 1 1 1 2 2 1 0 0 0
23 25 25 24 22 21 20 17 12 10 10 10 8 6 5 5 4 5 6 6 4 3 2 3 5 5 4 3 4 3 1 1 1 1 1 0 0 1 2 2 0 0 0
22 23 24 24 23 23 23 21 17 13 12 12 11 9 6 4 3 3 4 4 3 3 3 5 6 6 5 4 4 3 2 1 1 2 1 0 0 1 2 2 1 0 0
21 22 24 25 24 22 22 21 20 17 14 12 10 8 6 4 3 3 4 3 4 4 5 5 4 3 2 3 2 2 1 1 2 2 1 0 1 1 1 1 1 1 1
20 20 22 24 23 21 21 20 19 18 15 12 8 5 4 4 3 3 3 3 3 4 4 4 4 2 1 1 1 1 1 1 2 2 1 0 1 1 0 0 1 1 2
17 17 19 21 22 22 21 18 16 16 14 12 7 4 3 3 3 3 3 3 3 3 3 3 3 3 3 2 1 0 0 1 2 2 1 1 1 1 1 1 1 1 1
13 14 15 18 20 20 18 15 13 12 10 9 7 4 2 2 2 2 3 3 3 3 3 3 3 3 4 3 1 0 1 2 3 3 2 1 1 1 2 2 2 1 0
11 11 12 14 15 13 11 11 10 8 6 6 5 4 2 2 2 3 3 3 3 3 3 3 3 3 3 3 2 1 1 2 4 4 3 1 1 2 3 3 3 1 0
8 8 9 10 10 7 6 7 7 6 4 3 4 4 4 3 4 4 4 3 3 3 3 3 3 3 3 3 3 2 1 1 2 3 2 1 1 2 3 3 3 2 1
7 6 7 7 5 5 5 6 6 6 5 3 3 4 5 5 5 4 3 3 3 3 3 3 3 3 3 4 3 2 0 0 1 1 1 0 1 1 2 2 2 2 2
7 6 5 4 4 4 5 5 5 5 4 4 4 5 5 6 5 3 2 2 1 1 2 1 1 2 3 3 3 1 0 0 0 0 0 0 0 0 1 1 1 2 2
5 5 4 4 4 4 4 4 5 4 3 3 3 3 4 4 4 2 1 1 1 1 1 1 1 1 2 3 2 1 0 0 0 0 0 0 0 0 0 0 0 1 1
3 2 2 3 4 3 3 4 4 3 1 1 1 1 2 3 3 3 1 1 2 1 1 1 1 1 2 3 2 1 1 1 0 0 0 0 0 0 0 0 0 0 0
1 1 1 2 2 3 3 3 2 1 0 0 0 0 1 2 2 2 2 3 3 2 0 0 0 1 1 2 2 1 1 1 0 0 0 0 0 0 0 0 0 0 0
2 1 0 1 1 1 2 2 1 0 0 0 0 0 0 1 1 1 3 3 3 2 0 0 0 0 1 1 1 0 0 0 0 0 0 0 0 0 0 0 0 0 0
4 2 0 0 0 0 1 1 0 0 0 0 0 0 0 0 0 1 2 3 3 2 1 1 1 0 0 0 0 0 0 0 0 0 0 0 0 0 0 0 0 0 0
3 1 0 0 0 0 0 0 0 0 0 0 0 0 0 0 0 1 2 2 3 3 3 2 1 0 0 0 0 0 0 0 0 0 0 0 0 0 0 0 0 0 0
2 1 0 0 0 0 0 0 0 0 0 0 0 0 0 0 0 0 1 2 3 3 3 3 1 0 0 0 0 0 0 0 0 0 0 0 0 0 0 0 0 0 0
3 1 1 0 0 0 0 0 0 0 0 0 0 0 0 0 0 0 0 1 2 3 3 3 2 0 0 0 0 0 0 0 0 0 0 0 0 0 0 0 0 0 0
4 2 0 0 0 0 0 0 0 0 0 0 0 0 0 0 0 0 0 0 1 2 2 2 1 0 0 0 0 0 0 0 0 0 0 0 0 0 0 0 0 0 0
4 2 1 0 0 0 0 0 0 0 0 0 0 0 0 0 0 0 0 0 0 1 1 1 0 0 0 0 0 0 0 0 0 0 0 0 0 0 0 0 0 0 0
3 2 1 0 0 0 0 0 0 0 0 0 0 0 0 0 0 0 0 0 0 0 0 0 0 0 0 0 0 0 0 0 0 0 0 0 0 0 0 0 0 0 0
1 1 1 0 0 0 0 0 0 0 0 0 0 0 0 0 0 0 0 0 0 0 0 0 0 0 0 0 0 0 0 0 0 0 0 0 0 0 0 0 0 0 0
0 0 0 0 0 0 0 0 0 0 0 0 0 0 0 0 0 0 0 0 0 0 0 0 0 0 0 0 0 0 0 0 0 0 0 0 0 0 0 0 0 0 0
0 0 0 0 0 0 0 0 0 0 0 0 0 0 0 0 0 0 0 0 0 0 0 0 0 0 0 0 0 0 0 0 0 0 0 0 0 0 0 0 0 0 0
Wind_Speed
3 3 3 3 4 3 4 5 5 5 6 7 7 7 7 7 7 7 3 6 7 8 8 9 10 10 11 11 10 10 10 10 11 11 12 11 11 11 12 12 12 12 13
3 3 4 4 4 4 4 4 5 5 6 5 7 7 7 7 6 7 7 5 8 8 9 9 10 10 11 11 10 10 10 10 10 11 11 11 11 12 12 11 12 12 13
3 4 4 4 3 3 4 4 5 5 5 6 6 6 6 7 6 7 8 6 6 9 10 10 10 10 11 11 11 11 11 11 11 11 12 12 12 12 12 12 12 12 12
4 5 4 4 3 4 4 4 5 5 4 5 5 5 5 5 7 7 7 6 6 5 8 10 10 11 11 11 11 11 11 11 11 11 12 12 12 12 12 13 13 13 13
5 5 4 3 5 4 4 5 4 5 5 5 5 5 5 5 5 6 6 6 6 6 6 7 11 11 11 11 11 11 11 11 11 11 12 12 12 12 13 13 14 14 14
4 5 4 4 6 4 4 4 4 4 5 5 5 4 5 5 5 5 6 6 6 7 7 7 7 9 12 11 11 11 11 12 12 12 12 12 12 12 13 14 14 14 14
4 4 4 3 5 4 4 5 5 5 5 3 4 5 5 6 6 5 5 5 5 6 7 7 6 6 6 12 12 11 12 13 13 13 12 12 12 12 13 14 14 14 14
4 4 4 4 4 4 4 5 5 5 4 3 4 5 4 4 5 5 4 5 5 5 6 7 7 7 7 6 6 12 11 12 13 14 13 13 13 13 14 14 14 15 15
4 4 5 5 4 5 4 5 5 6 5 4 4 4 5 4 3 3 4 4 5 5 6 6 7 7 8 7 6 8 9 10 12 13 13 13 13 13 15 15 15 16 16
4 5 5 5 5 5 4 6 4 5 6 5 4 5 5 5 4 3 4 4 5 6 6 6 6 7 7 7 5 5 5 7 10 11 12 13 12 13 14 15 16 16 16
4 4 4 4 5 5 5 5 5 5 5 6 5 4 5 4 6 5 5 4 4 5 5 6 5 5 6 6 6 4 5 6 7 9 10 11 12 13 14 15 15 16 16
3 4 4 4 4 4 4 5 5 6 5 6 5 5 5 4 5 5 5 5 5 5 5 5 6 5 5 6 6 3 5 6 7 7 8 9 10 12 13 14 15 15 16
3 3 4 4 4 4 5 5 5 5 6 6 6 5 5 5 4 5 5 5 6 5 5 5 5 5 5 5 4 4 7 8 8 8 8 9 10 10 11 12 13 14 14
3 4 4 4 4 5 5 5 5 5 4 5 5 5 4 4 4 5 5 5 6 5 5 5 4 4 4 5 3 5 6 7 8 9 9 9 9 10 11 11 11 11 11
3 4 4 4 4 4 4 4 4 4 4 5 5 5 5 4 5 5 5 5 6 7 6 4 4 4 4 4 3 6 7 5 8 9 9 9 9 9 10 10 10 10 10
4 4 4 4 3 4 4 4 4 3 4 4 4 5 5 5 4 5 5 5 6 7 7 5 5 4 4 5 4 6 7 6 9 9 9 9 9 9 9 10 10 10 10
4 4 4 4 4 4 4 4 5 4 5 4 5 5 5 5 4 4 4 5 5 6 7 6 5 4 5 7 5 6 7 7 6 10 10 9 9 9 9 9 9 9 9
4 4 4 4 4 4 4 4 5 5 4 5 5 5 5 5 5 5 4 5 5 5 6 8 6 5 6 6 6 7 7 6 7 7 10 10 10 9 9 9 9 9 9
4 4 4 4 4 4 4 4 5 5 5 5 5 5 6 6 6 5 5 5 5 5 6 7 7 5 5 5 6 7 7 6 7 5 8 10 11 10 9 9 9 9 8
3 4 4 4 4 4 5 5 5 5 5 5 5 5 6 6 6 6 5 6 6 6 6 6 6 5 5 5 5 6 5 5 5 6 5 5 7 11 11 10 9 9 8
4 3 3 3 4 4 4 6 6 6 5 5 5 5 5 5 5 6 6 5 6 6 5 5 5 5 4 4 5 5 5 5 5 5 4 5 5 6 7 9 10 8 8
4 3 3 3 3 3 5 6 7 6 5 5 5 5 5 5 6 7 8 8 7 7 7 6 5 5 6 6 5 6 6 5 5 3 4 6 5 5 5 5 5 7 8
4 4 3 3 3 3 5 5 7 7 6 4 5 5 5 4 5 6 6 8 9 9 9 7 7 7 7 6 6 7 6 6 6 4 5 6 5 5 4 3 6 7 8
4 3 4 4 4 4 4 5 8 6 5 5 5 5 5 5 4 6 7 6 6 5 6 6 6 7 7 6 6 7 7 7 6 5 4 6 5 5 5 3 6 8 8
4 4 4 4 4 4 4 5 7 5 3 4 4 4 5 5 3 5 6 6 6 5 4 5 6 7 7 6 5 5 5 5 5 4 3 5 5 5 5 4 3 8 9
4 4 4 4 4 4 3 4 6 4 4 4 3 3 2 3 4 4 5 5 6 6 6 5 5 6 6 6 7 6 5 5 5 5 2 4 5 5 5 4 3 3 4
Wind_Direction
234 235 240 249 257 257 245 251 256 257 257 254 253 253 257 258 260 259 239 195 219 234 241 243 245 247 248 246 241 241 240 237 235 230 227 227 228 228 228 227 229 229 227
240 240 236 240 250 255 264 264 264 263 263 262 259 256 255 257 258 262 260 221 211 226 239 245 247 246 248 246 242 240 241 243 240 233 228 228 229 228 227 226 228 229 229
241 246 247 244 250 256 250 255 265 264 260 260 257 258 254 253 256 256 260 260 234 217 226 240 248 247 247 246 242 239 237 239 241 234 229 228 229 228 229 229 230 231 229
247 250 253 253 260 260 254 253 256 260 263 265 263 261 254 248 250 253 255 250 252 246 218 221 237 245 245 245 244 240 237 240 241 236 232 230 229 227 227 229 230 232 231
246 255 259 259 251 252 253 258 254 266 266 269 266 255 257 254 251 249 250 252 252 254 253 214 223 235 239 241 241 238 236 239 241 238 235 233 232 230 229 230 231 232 231
251 263 258 256 259 256 255 261 265 261 269 270 274 268 256 253 253 247 247 242 245 249 252 252 235 223 223 231 235 239 240 241 242 241 239 236 233 232 233 232 233 234 232
260 266 278 269 266 262 260 259 262 261 259 269 273 264 249 235 240 243 244 251 247 248 251 252 253 255 225 214 221 234 242 243 243 242 241 240 236 233 234 236 235 236 235
260 258 269 270 267 273 259 257 257 273 268 247 263 272 264 235 219 235 238 238 253 259 255 247 250 249 257 248 210 216 233 243 245 244 243 242 239 236 236 236 236 236 236
261 274 269 272 272 267 266 265 261 263 269 253 248 269 276 274 281 226 236 244 252 260 262 259 251 251 249 251 246 215 222 235 243 246 247 246 244 241 240 239 239 239 238
263 264 267 269 272 274 274 266 269 273 263 257 243 247 268 293 278 268 235 237 243 248 257 264 261 252 249 250 243 240 225 233 240 246 248 247 247 246 244 243 240 241 240
268 266 269 273 271 273 277 281 274 264 263 262 258 250 248 247 252 266 271 266 256 248 248 252 261 262 257 254 250 236 218 225 235 244 250 251 250 250 246 245 241 241 241
270 276 278 277 278 283 280 273 270 260 269 270 266 258 253 251 250 254 266 264 265 264 258 258 255 254 255 255 251 224 226 227 233 241 248 254 255 255 251 248 245 242 242
280 289 291 286 285 282 277 274 269 269 266 262 255 256 259 260 267 267 267 272 274 273 258 249 247 252 255 259 251 214 225 223 231 236 241 248 255 258 255 252 247 246 246
296 296 288 282 283 283 280 276 270 265 265 261 257 257 260 264 269 270 268 274 276 272 259 260 260 256 264 265 263 233 242 215 223 231 237 243 250 254 253 250 244 244 246
295 292 292 288 286 286 288 285 279 275 270 263 254 244 253 259 261 267 265 262 271 280 278 270 266 270 273 271 260 262 265 234 227 232 235 241 248 254 254 249 243 241 243
301 291 287 285 279 280 281 277 271 260 259 259 260 261 262 261 261 258 258 263 262 267 276 284 284 288 291 284 252 264 262 232 230 229 234 239 245 250 252 248 243 240 240
298 296 297 296 290 287 286 282 280 276 268 264 262 260 262 270 270 272 266 264 266 265 269 278 282 286 279 279 281 273 261 252 236 214 222 231 238 242 246 244 243 241 239
301 301 301 296 291 296 298 291 286 288 279 276 271 269 268 261 261 265 267 267 268 269 269 275 280 278 273 274 275 272 269 263 262 213 210 223 232 233 236 239 241 240 240
308 303 299 297 298 300 300 295 291 286 283 283 280 276 275 271 268 267 264 268 269 266 264 268 273 277 274 274 276 271 269 267 266 237 212 219 225 227 231 233 235 237 238
315 310 309 309 305 305 310 305 294 288 284 282 278 278 278 276 276 276 267 265 268 271 267 268 271 273 274 278 277 278 274 262 267 268 255 245 226 219 223 227 229 233 236
322 323 318 318 317 318 328 319 304 292 287 283 279 278 278 281 290 283 284 285 279 275 274 274 277 277 279 289 286 284 284 283 269 271 272 257 241 236 224 222 222 224 230
328 327 330 332 330 340 342 322 306 300 294 290 291 289 281 268 266 254 260 266 272 274 282 283 286 290 288 287 295 291 292 291 285 282 280 277 264 255 245 238 202 204 217
325 328 327 323 320 334 332 319 311 300 298 298 296 294 293 299 288 288 267 245 247 244 250 274 288 290 292 296 295 289 289 289 289 294 284 280 279 272 262 237 179 193 208
321 321 320 316 310 332 338 323 311 288 297 295 295 300 301 301 319 312 300 291 281 264 244 250 272 283 290 299 290 284 284 278 273 271 276 280 283 282 278 256 182 189 202
319 316 315 314 316 328 347 330 316 295 301 302 300 307 304 303 347 317 295 295 294 289 243 237 257 267 275 273 278 284 282 282 288 287 282 281 287 289 280 268 212 191 201
316 316 324 320 321 329 3 341 315 304 315 310 303 293 354 330 338 323 298 301 305 312 306 281 256 248 248 238 226 252 277 284 292 289 298 285 290 295 290 278 271 237 219